ITAMSAT (IO-26)

Last updated on Thu Nov 21 2024 00:03:02 GMT+0000 (Coordinated Universal Time)

1 22826U 93061D 24325.58378352 .00000290 00000+0 12749-3 0 9992 2 22826 98.7630 19.7101 0008329 332.6418 27.4325 14.31058012625262
UTC large
Height (km)
Speed (km/s)
/
Latitude / Longitude
Inclination (degrees)
Orbital Period (minutes)
Azimuth
Elevation
Range (km)
Doppler Factor

Next 0 passes for location: London (51.5072 / 0.1276)

Sorry there are no passes over London.